Location: Sevilla
(37.3933°N, 5.9839°W)
Time: 12:51:54
(UTC+02:00)

S-56A Canister/Altair - Pass Details

Date: 26 June 2024
Orbit: 638 x 2488 km, 38.9° (Epoch: 14 July)

Event Time Altitude Azimuth Distance (km) Brightness Sun altitude
Rises 05:53:41 0° 284° (WNW) 5,686 11.6 -12.2°
Reaches altitude 10° 05:58:17 10° 271° (W) 4,888 11.2 -11.5°
Maximum altitude 06:08:18 23° 227° (SW) 4,108 10.6 -10.0°
Drops below altitude 10° 06:18:43 10° 181° (S) 5,058 11.3 -8.4°
Sets 06:23:43 0° 169° (SSE) 5,920 11.8 -7.6°
